Regional Weather Roundup
Issued by NWS

Home | Current Version | Previous Version | Text Only | Print | Product List | Glossary Off
Versions: 1 2 3 4 5 6 7 8 9 10 11 12 13 14 15 16 17 18 19 20 21 22 23 24 25 26 27 28 29 30 31 32 33 34 35 36 37 38 39 40 41 42 43 44 45 46 47 48 49 50

000
ASUS43 KDMX 191501
RWRIA

WEATHER ROUNDUP FOR IOWA
NATIONAL WEATHER SERVICE DES MOINES IA
1000 AM CDT SAT MAY 19 2018

NOTE: "FAIR" INDICATES FEW OR NO CLOUDS BELOW 12,000 FEET WITH NO
SIGNIFICANT WEATHER AND/OR OBSTRUCTIONS TO VISIBILITY.

* - THESE STATIONS ARE NOT NWS STATIONS...THUS NOT UNDER NWS
QUALITY CONTROL.  THEY ALSO DO NOT REPORT WEATHER SUCH
AS PRECIPITATION OR FOG.

IAZ001>003-012>014-020>022-031>034-043>046-191600-
   NORTHWEST IOWA

CITY           SKY/WX    TMP DP  RH WIND       PRES   REMARKS
CARROLL *      CLOUDY   N/A N/A N/A N14       29.91F
CHEROKEE *     PTSUNNY   55  51  85 N9        29.94S
DENISON *      CLOUDY    61  52  72 N14       29.93S
LE MARS *      CLOUDY    54  46  76 N16       29.97R
ORANGE CITY *  CLOUDY    52  46  82 N13G22    29.97F
SHELDON *      CLOUDY    52  48  87 N20       29.96R
SIOUX CITY     CLOUDY    54  46  74 N15       29.97R
SPENCER        CLOUDY    52  46  80 N17G24    29.97R
STORM LAKE *   PTSUNNY   55  48  76 N15       29.93R
$$

IAZ055>058-069>071-079>083-090>094-191600-
   SOUTHWEST IOWA

CITY           SKY/WX    TMP DP  RH WIND       PRES   REMARKS
ATLANTIC *     CLOUDY    72  63  73 VRB3      29.86F
AUDUBON *      CLOUDY    66  59  77 N12       29.91S
CLARINDA *     CLOUDY    72  64  78 CALM      29.86F
COUNCIL BLFS * CLOUDY    59  59 100 NW16      29.89S
CRESTON *      CLOUDY    72  64  78 W5        29.88F
HARLAN  *      CLOUDY    63  55  77 N15G22    29.92S
LAMONI         CLOUDY    70  65  84 S6        29.87F
RED OAK *      CLOUDY    70  61  73 MISG      29.85F
SHENANDOAH *   CLOUDY    70  61  73 N10       29.85F
$$

IAZ047>049-059>061-072>074-084-191600-
   CENTRAL IOWA

CITY           SKY/WX    TMP DP  RH WIND       PRES   REMARKS
AMES           PTSUNNY   72  62  71 CALM      29.88S
ANKENY *       MOSUNNY   72  64  78 VRB3      29.89F
BOONE *        MOSUNNY   72  63  73 W6        29.88S
CHARITON *     MOSUNNY   72  66  83 SW5       29.88F
DES MOINES     PTSUNNY   74  64  71 VRB5      29.86F
GRINNELL*      CLOUDY    71  61  72 S5        29.91S
KNOXVILLE *    PTSUNNY   73  64  73 S7        29.87F
MARSHALLTOWN   PTSUNNY   73  63  70 S9        29.88S
NEWTON *       CLOUDY    72  63  73 S7        29.90S
PELLA *        CLOUDY    73  63  70 CALM      29.90F
PERRY *        FAIR      71  63  74 W6        29.88F
$$

IAZ004>006-015-016-023>025-035-036-191600-
   NORTH CENTRAL IOWA

CITY           SKY/WX    TMP DP  RH WIND       PRES   REMARKS
ALGONA *       CLOUDY    54  48  82 N13G20    29.94R
CLARION *      CLOUDY    59  50  72 N12G17    29.91S
ESTHERVILLE    CLOUDY    51  46  83 N21       29.94F
FORT DODGE *   CLOUDY    59  51  75 N9        29.92R
MASON CITY     CLOUDY    58  52  80 N12       29.93R
FOREST CITY *  CLOUDY    55  50  82 N13       29.93R
IOWA FALLS *   FAIR      72  62  71 W8        29.90R
$$

IAZ007>011-017>019-026>030-037>042-050>054-066-191600-
   NORTHEAST IOWA

CITY           SKY/WX    TMP DP  RH WIND       PRES   REMARKS
CEDAR RAPIDS   FAIR      71  62  73 W8        29.89R
CHARLES CITY * CLOUDY    68  59  73 VRB7      29.90R
CLINTON *      PTSUNNY   68  60  75 NW8       29.91R
DECORAH *      PTSUNNY   68  59  73 NW5       29.88S
DUBUQUE        CLOUDY    61  58  90 NW6       29.91R
MONTICELLO *   FAIR      70  59  68 CALM      29.89S
OELWEIN *      FAIR      70  59  68 VRB5      29.90R
WATERLOO       FAIR      71  61  70 SW6       29.88R
$$

IAZ064-065-067-068-078-191600-
   EAST CENTRAL IOWA

CITY           SKY/WX    TMP DP  RH WIND       PRES   REMARKS
DAVENPORT      CLOUDY    66  58  75 NW8       29.93R
IOWA CITY      FAIR      70  62  76 MISG      29.92R
MUSCATINE *    PTSUNNY   70  61  73 W8        29.92R
QUAD CITIES    CLOUDY    69  60  73 NW7       29.90R
$$

IAZ062-063-075>077-085>089-095>099-191600-
   SOUTHEAST IOWA

CITY           SKY/WX    TMP DP  RH WIND       PRES   REMARKS
BURLINGTON     PTSUNNY   66  62  87 W6        29.92R FOG
FAIRFIELD *    CLOUDY    66  66 100 VRB5      29.91S
FORT MADISON * CLOUDY    66  64  94 CALM      29.92F FOG
KEOKUK *       CLOUDY    64  64 100 CALM      29.91F FOG
OSKALOOSA *    FAIR      72  62  71 SW7       29.90S
CENTERVILLE *    N/A     72  72 100 CALM      29.90F
OTTUMWA        MOSUNNY   73  64  73 S8        29.90F
WASHINGTON *   MOSUNNY   66  66 100 CALM      29.92S FOG
$$

ABBREVIATIONS USED IN REMARKS
   TC - TEMPERATURES IN CELSIUS
  WCI - WIND CHILL INDEX
   HX - HEAT INDEX
  VSB - VISIBILITY
$$





USA.gov is the U.S. government's official web portal to all federal, state and local government web resources and services.